{"data":{"norad_id":66062,"epoch":"2026-09-20T14:17:14.688960Z","epoch_age_seconds":94805,"freshness":"FRESH","line1":"1 66062U 25235E   26263.59530890  .00024858  00000+0  74391-3 0  9998","line2":"2 66062  53.1584  57.0301 0000384  98.7714 261.3333 15.34420447 52805","mean_motion":15.34420447,"eccentricity":3.84e-5,"inclination_deg":53.1584,"raan_deg":57.0301,"arg_perigee_deg":98.7714,"mean_anomaly_deg":261.3333,"bstar":0.00074391,"rev_number":5280,"period_min":93.846507508121,"perigee_km":462.37978215738,"apogee_km":462.90515402053,"semimajor_km":6840.779468089,"source":"CELESTRAK","updated_at":"2026-09-21T09:00:35.794510Z"}}